(290085) = 2005 QH94

Discovered at Palomar on 2005-08-27 by NEAT.

Orbit

Orbit type: Main Belt

Note: WebGL enabled browser required.

epoch2023-02-25.0
epoch JD2460000.5
perihelion date2020-08-03.29652
perihelion JD2459064.79652
argument of perihelion (°)170.33232
ascending node (°)151.07105
inclination (°)6.35784
eccentricity0.1391565
perihelion distance (AU)2.0787116
Tisserand w.r.t. Jupiter3.5
ΔV w.r.t. Earth (km/sec)9.2
semimajor axis (AU)2.4147381
mean anomaly (°)245.77462
mean daily motion (°/day)0.26266290
aphelion distance (AU)2.751
period (years)3.75
P-vector [x]0.78205685
P-vector [y]-0.57892398
P-vector [z]-0.23072518
Q-vector [x]0.62090073
Q-vector [y]0.75561950
Q-vector [z]0.20861797
absolute magnitude17.11
phase slope0.15
uncertainty0
referenceMPO 745323
observations used302
oppositions12
arc length (days)11028
first opposition used1993
last opposition used2023
residual rms (arc-secs)0.87
perturbers coarse indicatorM-v
perturbers precise indicator003Ek
first observation date used1993-04-15.0
last observation date used2023-06-25.0
computer nameMPCLINUX
JD of orbit computation2456670.741401
perihelion JD uncertainty (days)1.6171E-04
argument of perihelion uncertainty (°)1.0924E-04
ascending node uncertainty (°)1.0063E-04
inclination uncertainty (°)8.9519E-06
eccentricity uncertainty 8.5012E-08
perihelion distance uncertainty (AU)1.9755E-07
Minimum Orbit Intersection Distances (in AU)
for orbit epoch: 2460000.5, reference: E2023-ME7
Mercury1.66126
Venus1.35342
Earth1.06515
Mars0.69867
Jupiter2.54032
Saturn6.4074
Uranus15.7153
Neptune27.4865

Observations

310 total observations over interval: 1993 04 15.31598 – 2023 06 25.225952
These data are available for download (format description).

Date (UT) J2000 RA J2000 Dec Magn Location Ref
1993 04 15.31598 13 48 09.82 -01 58 26.4   691 – Steward Observatory, Kitt Peak-Spacewatch MPS 280088
1993 04 15.34757 13 48 08.05 -01 58 12.7 20.3 V 691 – Steward Observatory, Kitt Peak-Spacewatch MPS 280088
1993 04 15.38079 13 48 06.26 -01 57 58.5   691 – Steward Observatory, Kitt Peak-Spacewatch MPS 280088
2005 05 16.43721 21 37 09.73 -09 32 33.1 22.1 V 291 – LPL/Spacewatch II MPS 280088
2005 05 16.44300 21 37 10.19 -09 32 31.0 21.7 V 291 – LPL/Spacewatch II MPS 280088
2005 05 16.44894 21 37 10.64 -09 32 29.0 21.4 V 291 – LPL/Spacewatch II MPS 280088
2005 08 01.56591 22 15 03.20 -08 40 34.3 19.5 V E12 – Siding Spring Survey MPS 280088
2005 08 01.56958 22 15 03.06 -08 40 35.2 19.7 V E12 – Siding Spring Survey MPS 280088
2005 08 01.57321 22 15 02.91 -08 40 37.1 19.6 V E12 – Siding Spring Survey MPS 280088
2005 08 01.57682 22 15 02.84 -08 40 39.0 19.8 V E12 – Siding Spring Survey MPS 280088
2005 08 06.42875 22 12 10.96 -09 17 37.6 19.9   644 – Palomar Mountain/NEAT MPS 280088
2005 08 06.43044 22 12 10.89 -09 17 38.2 19.8   644 – Palomar Mountain/NEAT MPS 280088
2005 08 06.43898 22 12 10.54 -09 17 42.3 19.5   644 – Palomar Mountain/NEAT MPS 280088
2005 08 06.44169 22 12 10.42 -09 17 43.8 19.3   644 – Palomar Mountain/NEAT MPS 280088
2005 08 06.45047 22 12 10.06 -09 17 48.0 19.3   644 – Palomar Mountain/NEAT MPS 280088
2005 08 06.45330 22 12 09.96 -09 17 49.2 19.5   644 – Palomar Mountain/NEAT MPS 280088
2005 08 27.28846 21 56 34.14 -12 21 26.6 19.5   644 – Palomar Mountain/NEAT MPS 140347
2005 08 27.31533 21 56 32.81 -12 21 41.0 19.3   644 – Palomar Mountain/NEAT MPS 140347
2005 08 27.35240 21 56 31.01 -12 22 00.8 19.0   644 – Palomar Mountain/NEAT MPS 140347
2005 08 31.19296 21 53 39.66 -12 55 27.0 19.1   704 – Lincoln Laboratory ETS, New Mexico MPS 140347
2005 08 31.20415 21 53 39.12 -12 55 31.9 19.8   704 – Lincoln Laboratory ETS, New Mexico MPS 140347
2005 08 31.21533 21 53 38.59 -12 55 39.1 19.8   704 – Lincoln Laboratory ETS, New Mexico MPS 140347
2008 03 28.29105 14 01 46.64 -04 05 10.4 20.5 V 691 – Steward Observatory, Kitt Peak-Spacewatch MPS 280088
2008 03 28.30868 14 01 45.93 -04 05 03.3 20.4 V 691 – Steward Observatory, Kitt Peak-Spacewatch MPS 280088
2008 03 28.32628 14 01 45.17 -04 04 55.4 20.2 V 691 – Steward Observatory, Kitt Peak-Spacewatch MPS 280088
2008 04 14.19093 13 48 21.59 -02 01 47.5 20.6 V 691 – Steward Observatory, Kitt Peak-Spacewatch MPS 280088
2008 04 14.20852 13 48 20.62 -02 01 39.8 20.6 V 691 – Steward Observatory, Kitt Peak-Spacewatch MPS 280088
2008 04 14.22612 13 48 19.68 -02 01 32.4 20.4 V 691 – Steward Observatory, Kitt Peak-Spacewatch MPS 280088
2008 05 07.35339 13 28 40.04 +00 12 54.6 20.8 V G96 – Mt. Lemmon Survey MPS 280088
2008 05 07.36178 13 28 39.68 +00 12 56.5 20.8 V G96 – Mt. Lemmon Survey MPS 280088
2008 05 07.37043 13 28 39.25 +00 12 58.4 21.0 V G96 – Mt. Lemmon Survey MPS 280088
2008 05 07.37902 13 28 38.92 +00 13 00.7 20.4 V G96 – Mt. Lemmon Survey MPS 280088
2009 10 27.23622 00 53 48.44 -03 28 14.3 20.8 V 703 – Catalina Sky Survey MPS 300674
2009 10 27.24409 00 53 48.04 -03 28 16.6 19.3 V 703 – Catalina Sky Survey MPS 300674
2009 10 27.25185 00 53 47.58 -03 28 16.6 19.4 V 703 – Catalina Sky Survey MPS 300674
2009 10 27.25964 00 53 47.32 -03 28 19.2 20.9 V 703 – Catalina Sky Survey MPS 300674
2011 01 13.35594 09 13 18.13 +12 11 46.3 20.6 V 691 – Steward Observatory, Kitt Peak-Spacewatch MPS 365528
2011 01 13.37363 09 13 17.27 +12 11 51.8 20.9 V 691 – Steward Observatory, Kitt Peak-Spacewatch MPS 365528
2011 01 13.39135 09 13 16.37 +12 11 56.6 20.9 V 691 – Steward Observatory, Kitt Peak-Spacewatch MPS 365528
2011 02 09.37395 08 48 20.91 +14 47 24.0 21.1 V G96 – Mt. Lemmon Survey MPS 369500
2011 02 09.37705 08 48 20.70 +14 47 25.0 21.3 V G96 – Mt. Lemmon Survey MPS 369500
2011 02 09.38023 08 48 20.55 +14 47 26.6 21.0 V G96 – Mt. Lemmon Survey MPS 369500
2011 02 09.38333 08 48 20.37 +14 47 26.5 20.9 V G96 – Mt. Lemmon Survey MPS 369500
2011 02 25.15962 08 35 08.12 +16 16 42.0 21.4 V G96 – Mt. Lemmon Survey MPS 371427
2011 02 25.16660 08 35 07.80 +16 16 44.1 22.6 V G96 – Mt. Lemmon Survey MPS 371427
2011 02 25.17362 08 35 07.54 +16 16 45.7 21.4 V G96 – Mt. Lemmon Survey MPS 371427
2011 02 25.18061 08 35 07.18 +16 16 48.0 21.6 V G96 – Mt. Lemmon Survey MPS 371427
2012 05 13.30057 15 58 10.27 -09 10 51.4 20.6 V 703 – Catalina Sky Survey MPS 424863
2012 05 13.30913 15 58 09.69 -09 10 47.6 19.8 V 703 – Catalina Sky Survey MPS 424863
2012 05 13.31770 15 58 09.26 -09 10 47.0 19.6 V 703 – Catalina Sky Survey MPS 424863
2012 05 13.32631 15 58 08.79 -09 10 43.8 19.3 V 703 – Catalina Sky Survey MPS 424863
2012 05 14.36610 15 57 11.48 -09 06 21.0 18.9 V G96 – Mt. Lemmon Survey MPS 424863
2012 05 14.37235 15 57 11.08 -09 06 20.3 19.4 V G96 – Mt. Lemmon Survey MPS 424863
2012 05 14.37868 15 57 10.69 -09 06 18.6 19.5 V G96 – Mt. Lemmon Survey MPS 424863
2012 05 14.38493 15 57 10.36 -09 06 17.3 19.5 V G96 – Mt. Lemmon Survey MPS 424863
2012 05 21.27941 15 50 39.07 -08 40 02.5 19.6   704 – Lincoln Laboratory ETS, New Mexico MPS 425931
2012 05 21.29114 15 50 38.36 -08 39 59.4 19.7   704 – Lincoln Laboratory ETS, New Mexico MPS 425931
2012 05 21.30278 15 50 37.70 -08 39 57.4 19.5   704 – Lincoln Laboratory ETS, New Mexico MPS 425931
2012 06 10.20126 15 33 02.09 -08 01 30.5 20.1 V 691 – Steward Observatory, Kitt Peak-Spacewatch MPS 427254
2012 06 10.26252 15 32 59.24 -08 01 29.3 20.1 V 691 – Steward Observatory, Kitt Peak-Spacewatch MPS 427254
2012 06 10.32381 15 32 56.45 -08 01 28.2 19.9 V 691 – Steward Observatory, Kitt Peak-Spacewatch MPS 427254
2013 11 02.34416 03 45 05.39 +09 02 38.5 20.5 V 703 – Catalina Sky Survey MPS 487024
2013 11 02.36450 03 45 04.23 +09 02 32.2 19.9 V 703 – Catalina Sky Survey MPS 487024
2013 11 02.37469 03 45 03.70 +09 02 28.8 19.6 V 703 – Catalina Sky Survey MPS 487024
2013 11 09.33044 03 38 27.20 +08 29 46.1 19.6 V 703 – Catalina Sky Survey MPS 488309
2013 11 09.33598 03 38 26.75 +08 29 44.2 19.9 V 703 – Catalina Sky Survey MPS 488309
2013 11 09.34153 03 38 26.42 +08 29 42.6 19.8 V 703 – Catalina Sky Survey MPS 488309
2013 11 09.34708 03 38 26.14 +08 29 42.3 19.5 V 703 – Catalina Sky Survey MPS 488309
2013 11 27.44703 03 20 45.524 +07 30 01.12 20.5 g F51 – Pan-STARRS 1, Haleakala MPS 489814
2013 11 27.46037 03 20 44.784 +07 29 59.49 20.4 g F51 – Pan-STARRS 1, Haleakala MPS 489814
2013 11 27.47377 03 20 44.024 +07 29 57.89 19.8 r F51 – Pan-STARRS 1, Haleakala MPS 489814
2013 11 29.52530 03 18 55.93 +07 26 18.3 21.0 R D29 – Purple Mountain Observatory, XuYi Station MPS 490891
2013 11 29.54121 03 18 55.03 +07 26 16.8 20.8 R D29 – Purple Mountain Observatory, XuYi Station MPS 490891
2013 11 29.55711 03 18 54.21 +07 26 15.0 20.5 R D29 – Purple Mountain Observatory, XuYi Station MPS 490891
2013 12 07.20184 03 12 53.82 +07 19 11.4 19.7 V 703 – Catalina Sky Survey MPS 493292
2013 12 07.20892 03 12 53.72 +07 19 12.4 20.2 V 703 – Catalina Sky Survey MPS 493292
2013 12 07.21599 03 12 53.42 +07 19 12.0 20.0 V 703 – Catalina Sky Survey MPS 493292
2013 12 07.22306 03 12 53.25 +07 19 10.8 20.8 V 703 – Catalina Sky Survey MPS 493292
2015 02 10.74887 10 40 08.86 +08 38 40.2 20.5 R D29 – Purple Mountain Observatory, XuYi Station MPS 579578
2015 02 16.34983 10 35 28.583 +09 19 12.53 20.9 w F51 – Pan-STARRS 1, Haleakala MPS 582924
2015 02 16.36235 10 35 27.910 +09 19 18.14 20.8 w F51 – Pan-STARRS 1, Haleakala MPS 582924
2015 02 16.37492 10 35 27.239 +09 19 23.68 21.0 w F51 – Pan-STARRS 1, Haleakala MPS 582924
2015 03 11.14741 10 15 16.10 +12 05 58.0 21.4 V 691 – Steward Observatory, Kitt Peak-Spacewatch MPS 586923
2015 03 11.18012 10 15 14.41 +12 06 11.6 20.8 V 691 – Steward Observatory, Kitt Peak-Spacewatch MPS 586923
2015 03 11.21271 10 15 12.80 +12 06 24.6 20.7 V 691 – Steward Observatory, Kitt Peak-Spacewatch MPS 586923
2015 03 14.31178 10 12 45.608 +12 26 19.18 21.0 w F51 – Pan-STARRS 1, Haleakala MPS 591841
2015 03 14.32439 10 12 45.007 +12 26 23.92 20.9 w F51 – Pan-STARRS 1, Haleakala MPS 591841
2015 03 14.33704 10 12 44.398 +12 26 28.69 21.1 w F51 – Pan-STARRS 1, Haleakala MPS 591841
2017 09 01.58806 05 24 33.717 +16 50 44.33 21.7 w F51 – Pan-STARRS 1, Haleakala MPS 814784
